Main page
METAR-TAF:

METAR-TAF

Airports :

Hutchinson County Airport

Borger, Texas, United States

latitude: 35-41-42N, longitude: 101-23-42W, elevation: 3054 ft

Current weather observation

The report was made 1 hour and 2 minutes ago, at 03:51 UTC
Wind 16 mph from the South
Temperature 43°F
Humidity 49%
Pressure 30.24 in. Hg
Visibility: 10 miles
Clear sky

METAR: KBGD 210351Z AUTO 19014KT 10SM CLR 06/M04 A3024 RMK AO2 SLP241 T00561039

Time: 22:53 (04:53 UTC)


TAF: missing

Weather observations and forecasts of more than 4000 airports (METAR and TAF reports).

The available stations are represented by yellow and red dots on the map.

Hover mouse over dot to see the name of the station.

Then click to see weather observations and forecasts.

To change the map : click on the green buttons with a black cross to zoom in, on the green button with a dash to zoom out, or on the green arrows for adjacent maps.


METAR-TAF: